| time (UTC) | temp C | wind direction | speed KPH | gust KPH | rain 1hr cm | rain 24hr cm | rain mn cm | humidity % | barometer mb |
| 20260508053350 | 9 | 0 | 90.1 | 120.7 | 0.00 | 0.00 | 0.00 | 48 | 1014.2 |
| 20260508052350 | 9 | 0 | 90.1 | 120.7 | 0.00 | 0.00 | 0.00 | 48 | 1014.1 |
| 20260508051350 | 9 | 0 | 90.1 | 120.7 | 0.00 | 0.00 | 0.00 | 48 | 1014.0 |
| 20260508050350 | 9 | 0 | 90.1 | 120.7 | 0.00 | 0.00 | 0.00 | 48 | 1014.0 |
| 20260508045350 | 9 | 90 | 90.1 | 120.7 | 0.00 | 0.00 | 0.00 | 48 | 1013.9 |
| 20260508044350 | 9 | 90 | 90.1 | 120.7 | 0.00 | 0.00 | 0.00 | 47 | 1013.9 |
| 20260508043349 | 9 | 0 | 90.1 | 120.7 | 0.00 | 0.00 | 0.00 | 47 | 1013.8 |
| 20260508042349 | 9 | 0 | 90.1 | 120.7 | 0.00 | 0.00 | 0.00 | 47 | 1013.6 |
| 20260508041349 | 9 | 0 | 90.1 | 120.7 | 0.00 | 0.00 | 0.00 | 46 | 1013.7 |
| 20260508040349 | 9 | 0 | 90.1 | 120.7 | 0.00 | 0.00 | 0.00 | 46 | 1013.5 |
| 20260508035349 | 9 | 0 | 90.1 | 120.7 | 0.00 | 0.00 | 0.00 | 45 | 1013.5 |
| 20260508034349 | 9 | 0 | 90.1 | 120.7 | 0.00 | 0.00 | 0.00 | 44 | 1013.5 |
| 20260508033349 | 9 | 45 | 90.1 | 120.7 | 0.00 | 0.00 | 0.00 | 43 | 1013.3 |
| 20260508032349 | 9 | 0 | 90.1 | 120.7 | 0.00 | 0.00 | 0.00 | 42 | 1013.1 |
| 20260508031349 | 9 | 0 | 90.1 | 120.7 | 0.00 | 0.00 | 0.00 | 42 | 1013.1 |
| 20260508030349 | 9 | 0 | 90.1 | 120.7 | 0.00 | 0.00 | 0.00 | 42 | 1013.1 |
| 20260508025349 | 9 | 0 | 90.1 | 120.7 | 0.00 | 0.00 | 0.00 | 43 | 1013.2 |
| 20260508024349 | 9 | 22 | 90.1 | 120.7 | 0.00 | 0.00 | 0.00 | 43 | 1013.2 |
| 20260508023348 | 9 | 0 | 90.1 | 120.7 | 0.00 | 0.00 | 0.00 | 43 | 1013.1 |
| 20260508022348 | 9 | 0 | 90.1 | 120.7 | 0.00 | 0.00 | 0.00 | 43 | 1013.0 |
| 20260508021348 | 9 | 22 | 90.1 | 120.7 | 0.00 | 0.00 | 0.00 | 45 | 1012.9 |
| 20260508020348 | 10 | 0 | 90.1 | 120.7 | 0.00 | 0.00 | 0.00 | 47 | 1013.0 |
| 20260508015348 | 10 | 0 | 90.1 | 120.7 | 0.00 | 0.00 | 0.00 | 48 | 1013.0 |
| 20260508014348 | 10 | 0 | 90.1 | 120.7 | 0.00 | 0.00 | 0.00 | 49 | 1013.0 |
| 20260508013348 | 10 | 0 | 90.1 | 120.7 | 0.00 | 0.00 | 0.00 | 52 | 1013.0 |
| 20260508012348 | 10 | 0 | 90.1 | 120.7 | 0.00 | 0.00 | 0.00 | 53 | 1013.0 |
| 20260508011348 | 10 | 0 | 90.1 | 120.7 | 0.00 | 0.00 | 0.00 | 54 | 1013.0 |
| 20260508010348 | 10 | 22 | 90.1 | 120.7 | 0.00 | 0.00 | 0.00 | 54 | 1012.9 |
| 20260508005348 | 10 | 0 | 90.1 | 120.7 | 0.00 | 0.00 | 0.00 | 55 | 1012.7 |
| 20260508004347 | 10 | 0 | 90.1 | 120.7 | 0.00 | 0.00 | 0.00 | 56 | 1012.7 |
| 20260508003347 | 10 | 0 | 90.1 | 120.7 | 0.00 | 0.00 | 0.00 | 57 | 1012.6 |
| 20260508002347 | 10 | 0 | 90.1 | 120.7 | 0.00 | 0.00 | 0.00 | 58 | 1012.7 |
| 20260508001347 | 10 | 0 | 90.1 | 120.7 | 0.00 | 0.00 | 0.00 | 58 | 1013.0 |
| 20260508000349 | 10 | 0 | 90.1 | 120.7 | 0.00 | 0.00 | 0.00 | 58 | 1012.7 |
| 20260507235347 | 10 | 0 | 90.1 | 120.7 | 0.00 | 0.00 | 0.00 | 58 | 1012.6 |
| 20260507234349 | 10 | 0 | 90.1 | 120.7 | 0.00 | 0.00 | 0.00 | 60 | 1012.7 |
| 20260507233347 | 10 | 0 | 90.1 | 120.7 | 0.00 | 0.00 | 0.00 | 60 | 1012.7 |
| 20260507232347 | 10 | 0 | 90.1 | 120.7 | 0.00 | 0.00 | 0.00 | 60 | 1012.6 |
| 20260507231347 | 10 | 0 | 90.1 | 120.7 | 0.00 | 0.00 | 0.00 | 60 | 1012.7 |
| 20260507230347 | 10 | 0 | 90.1 | 120.7 | 0.00 | 0.00 | 0.00 | 60 | 1012.6 |
| 20260507225347 | 11 | 0 | 90.1 | 120.7 | 0.00 | 0.00 | 0.00 | 60 | 1012.6 |
| 20260507224346 | 11 | 0 | 90.1 | 120.7 | 0.00 | 0.00 | 0.00 | 60 | 1012.6 |
| 20260507223346 | 11 | 0 | 90.1 | 120.7 | 0.00 | 0.00 | 0.00 | 59 | 1012.4 |
| 20260507222346 | 11 | 0 | 90.1 | 120.7 | 0.00 | 0.00 | 0.00 | 59 | 1012.4 |
| 20260507221346 | 11 | 0 | 90.1 | 120.7 | 0.00 | 0.00 | 0.00 | 59 | 1012.5 |
| 20260507220346 | 11 | 0 | 90.1 | 120.7 | 0.00 | 0.00 | 0.00 | 59 | 1012.5 |
| 20260507215346 | 11 | 0 | 90.1 | 120.7 | 0.00 | 0.00 | 0.00 | 58 | 1012.3 |
| 20260507214346 | 11 | 0 | 90.1 | 120.7 | 0.00 | 0.00 | 0.00 | 59 | 1012.3 |
| 20260507213346 | 11 | 0 | 90.1 | 120.7 | 0.00 | 0.00 | 0.00 | 59 | 1012.2 |
| 20260507212346 | 11 | 0 | 90.1 | 120.7 | 0.00 | 0.00 | 0.00 | 58 | 1012.3 |
| 20260507211346 | 11 | 0 | 90.1 | 120.7 | 0.00 | 0.00 | 0.00 | 58 | 1012.2 |
| 20260507210346 | 11 | 202 | 90.1 | 120.7 | 0.00 | 0.00 | 0.00 | 57 | 1012.2 |
| 20260507205346 | 11 | 0 | 90.1 | 120.7 | 0.00 | 0.00 | 0.00 | 57 | 1012.0 |
| 20260507204345 | 11 | 180 | 90.1 | 120.7 | 0.00 | 0.00 | 0.00 | 57 | 1012.0 |
| 20260507203345 | 12 | 0 | 90.1 | 120.7 | 0.00 | 0.00 | 0.00 | 58 | 1011.8 |
| 20260507202346 | 12 | 0 | 90.1 | 120.7 | 0.00 | 0.00 | 0.00 | 58 | 1011.9 |
| 20260507201345 | 12 | 0 | 90.1 | 120.7 | 0.00 | 0.00 | 0.00 | 56 | 1011.8 |
| 20260507200345 | 12 | 0 | 90.1 | 120.7 | 0.00 | 0.00 | 0.00 | 56 | 1011.8 |
| 20260507195345 | 12 | 0 | 90.1 | 120.7 | 0.00 | 0.00 | 0.00 | 55 | 1011.8 |
| 20260507194345 | 12 | 157 | 90.1 | 120.7 | 0.00 | 0.00 | 0.00 | 54 | 1011.8 |
| 20260507193345 | 12 | 0 | 90.1 | 120.7 | 0.00 | 0.00 | 0.00 | 55 | 1011.6 |
| 20260507192345 | 12 | 0 | 90.1 | 120.7 | 0.00 | 0.00 | 0.00 | 56 | 1011.7 |
| 20260507191345 | 12 | 0 | 90.1 | 120.7 | 0.00 | 0.00 | 0.00 | 57 | 1011.5 |
| 20260507190345 | 12 | 0 | 90.1 | 120.7 | 0.00 | 0.00 | 0.00 | 57 | 1011.2 |
| 20260507185344 | 12 | 112 | 90.1 | 120.7 | 0.00 | 0.00 | 0.00 | 57 | 1011.0 |
| 20260507184344 | 12 | 0 | 90.1 | 120.7 | 0.00 | 0.00 | 0.00 | 57 | 1010.6 |
| 20260507183344 | 13 | 0 | 90.1 | 120.7 | 0.00 | 0.00 | 0.00 | 56 | 1010.6 |
| 20260507182344 | 13 | 0 | 90.1 | 120.7 | 0.00 | 0.00 | 0.00 | 58 | 1010.5 |
| 20260507181344 | 13 | 0 | 90.1 | 120.7 | 0.00 | 0.00 | 0.00 | 56 | 1010.4 |
| 20260507180344 | 13 | 0 | 90.1 | 120.7 | 0.00 | 0.00 | 0.00 | 56 | 1010.2 |
| 20260507175344 | 13 | 0 | 90.1 | 120.7 | 0.00 | 0.00 | 0.00 | 56 | 1010.0 |
| 20260507174344 | 13 | 0 | 90.1 | 120.7 | 0.00 | 0.00 | 0.00 | 57 | 1010.1 |
| 20260507173344 | 13 | 0 | 90.1 | 120.7 | 0.00 | 0.00 | 0.00 | 58 | 1009.9 |
| 20260507172344 | 14 | 0 | 90.1 | 120.7 | 0.00 | 0.00 | 0.00 | 61 | 1009.7 |
| 20260507171344 | 14 | 22 | 90.1 | 120.7 | 0.00 | 0.00 | 0.00 | 61 | 1009.7 |
| 20260507170344 | 14 | 0 | 90.1 | 120.7 | 0.00 | 0.00 | 0.00 | 62 | 1010.0 |
| 20260507165343 | 15 | 0 | 90.1 | 120.7 | 0.00 | 0.00 | 0.00 | 62 | 1009.8 |
| 20260507164343 | 15 | 0 | 90.1 | 120.7 | 0.00 | 0.00 | 0.00 | 63 | 1009.6 |
| 20260507163343 | 15 | 0 | 90.1 | 120.7 | 0.00 | 0.00 | 0.00 | 64 | 1009.3 |
| 20260507162343 | 15 | 0 | 90.1 | 120.7 | 0.00 | 0.00 | 0.00 | 64 | 1009.5 |
| 20260507161343 | 15 | 0 | 90.1 | 120.7 | 0.00 | 0.00 | 0.00 | 64 | 1009.1 |
| 20260507160343 | 16 | 0 | 90.1 | 120.7 | 0.00 | 0.00 | 0.00 | 63 | 1009.1 |
| 20260507155343 | 16 | 202 | 90.1 | 120.7 | 0.00 | 0.00 | 0.00 | 64 | 1009.1 |
| 20260507154343 | 16 | 0 | 90.1 | 120.7 | 0.00 | 0.00 | 0.00 | 65 | 1009.0 |
| 20260507153343 | 16 | 0 | 90.1 | 120.7 | 0.00 | 0.00 | 0.00 | 66 | 1008.8 |
| 20260507152343 | 16 | 0 | 90.1 | 120.7 | 0.00 | 0.00 | 0.00 | 69 | 1008.8 |
| 20260507151343 | 16 | 0 | 90.1 | 120.7 | 0.00 | 0.00 | 0.00 | 71 | 1009.0 |
| 20260507150342 | 17 | 0 | 90.1 | 120.7 | 0.00 | 0.00 | 0.00 | 72 | 1008.7 |
| 20260507145342 | 17 | 0 | 90.1 | 120.7 | 0.00 | 0.00 | 0.00 | 70 | 1008.7 |
| 20260507144342 | 17 | 0 | 90.1 | 120.7 | 0.00 | 0.00 | 0.00 | 70 | 1008.8 |
| 20260507143342 | 17 | 0 | 90.1 | 120.7 | 0.00 | 0.00 | 0.00 | 69 | 1008.7 |
| 20260507142342 | 17 | 0 | 90.1 | 120.7 | 0.00 | 0.00 | 0.00 | 70 | 1008.9 |
| 20260507141342 | 17 | 0 | 90.1 | 120.7 | 0.00 | 0.00 | 0.00 | 69 | 1008.9 |
| 20260507140342 | 18 | 0 | 90.1 | 120.7 | 0.00 | 0.00 | 0.00 | 70 | 1008.8 |
| 20260507135342 | 18 | 180 | 90.1 | 120.7 | 0.00 | 0.00 | 0.00 | 70 | 1008.8 |
| 20260507134342 | 18 | 0 | 90.1 | 120.7 | 0.00 | 0.00 | 0.00 | 70 | 1008.8 |
| 20260507133342 | 18 | 0 | 90.1 | 120.7 | 0.00 | 0.00 | 0.00 | 70 | 1008.9 |
| 20260507132342 | 18 | 0 | 90.1 | 120.7 | 0.00 | 0.00 | 0.00 | 71 | 1008.8 |
| 20260507131342 | 17 | 0 | 90.1 | 120.7 | 0.00 | 0.00 | 0.00 | 71 | 1008.7 |
| 20260507130341 | 17 | 180 | 90.1 | 120.7 | 0.00 | 0.00 | 0.00 | 71 | 1008.5 |
| 20260507125341 | 17 | 0 | 90.1 | 120.7 | 0.00 | 0.00 | 0.00 | 72 | 1008.6 |
| 20260507124341 | 17 | 0 | 90.1 | 120.7 | 0.00 | 0.00 | 0.00 | 72 | 1008.8 |
| 20260507123341 | 17 | 0 | 90.1 | 120.7 | 0.00 | 0.00 | 0.00 | 72 | 1008.7 |
| 20260507122341 | 16 | 0 | 90.1 | 120.7 | 0.00 | 0.00 | 0.00 | 72 | 1008.9 |
| 20260507121341 | 16 | 0 | 90.1 | 120.7 | 0.00 | 0.00 | 0.00 | 71 | 1009.0 |
| 20260507120341 | 16 | 0 | 90.1 | 120.7 | 0.00 | 0.00 | 0.00 | 71 | 1008.9 |
| 20260507115341 | 16 | 0 | 90.1 | 120.7 | 0.00 | 0.00 | 0.00 | 69 | 1009.0 |
| 20260507114341 | 16 | 0 | 90.1 | 120.7 | 0.00 | 0.00 | 0.00 | 69 | 1009.0 |
| 20260507113341 | 15 | 0 | 90.1 | 120.7 | 0.00 | 0.00 | 0.00 | 68 | 1009.1 |
| 20260507112341 | 15 | 0 | 90.1 | 120.7 | 0.00 | 0.00 | 0.00 | 68 | 1009.1 |
| 20260507111340 | 15 | 0 | 90.1 | 120.7 | 0.00 | 0.00 | 0.00 | 66 | 1009.1 |
| 20260507110340 | 15 | 202 | 90.1 | 120.7 | 0.00 | 0.00 | 0.00 | 66 | 1008.9 |
| 20260507105340 | 15 | 0 | 90.1 | 120.7 | 0.00 | 0.00 | 0.00 | 65 | 1008.9 |
| 20260507104340 | 15 | 0 | 90.1 | 120.7 | 0.00 | 0.00 | 0.00 | 64 | 1008.8 |
| 20260507103340 | 15 | 0 | 90.1 | 120.7 | 0.00 | 0.00 | 0.00 | 63 | 1008.7 |
| 20260507102340 | 15 | 180 | 90.1 | 120.7 | 0.00 | 0.00 | 0.00 | 62 | 1008.6 |
| 20260507101340 | 15 | 0 | 90.1 | 120.7 | 0.00 | 0.00 | 0.00 | 59 | 1008.4 |
| 20260507100340 | 14 | 0 | 90.1 | 120.7 | 0.00 | 0.00 | 0.00 | 58 | 1008.3 |
| 20260507095340 | 14 | 0 | 90.1 | 120.7 | 0.00 | 0.00 | 0.00 | 57 | 1008.2 |
| 20260507094340 | 14 | 0 | 90.1 | 120.7 | 0.00 | 0.00 | 0.00 | 57 | 1008.1 |
| 20260507093340 | 14 | 0 | 90.1 | 120.7 | 0.00 | 0.00 | 0.00 | 58 | 1007.9 |
| 20260507092340 | 14 | 0 | 90.1 | 120.7 | 0.00 | 0.00 | 0.00 | 58 | 1007.9 |
| 20260507091339 | 15 | 0 | 90.1 | 120.7 | 0.00 | 0.00 | 0.00 | 60 | 1007.6 |
| 20260507090339 | 15 | 90 | 90.1 | 120.7 | 0.00 | 0.00 | 0.00 | 61 | 1007.5 |
| 20260507085339 | 15 | 0 | 90.1 | 120.7 | 0.00 | 0.00 | 0.00 | 61 | 1007.2 |
| 20260507084339 | 15 | 0 | 90.1 | 120.7 | 0.00 | 0.00 | 0.00 | 61 | 1007.2 |
| 20260507083339 | 15 | 0 | 90.1 | 120.7 | 0.00 | 0.00 | 0.00 | 60 | 1007.0 |
| 20260507082339 | 15 | 0 | 90.1 | 120.7 | 0.00 | 0.00 | 0.00 | 60 | 1006.6 |
| 20260507081339 | 15 | 22 | 90.1 | 120.7 | 0.00 | 0.00 | 0.00 | 58 | 1006.5 |
| 20260507080339 | 15 | 0 | 90.1 | 120.7 | 0.00 | 0.00 | 0.00 | 57 | 1006.4 |
| 20260507075339 | 15 | 0 | 90.1 | 120.7 | 0.00 | 0.00 | 0.00 | 56 | 1006.3 |
| 20260507074339 | 15 | 0 | 90.1 | 120.7 | 0.00 | 0.00 | 0.00 | 56 | 1006.2 |
| 20260507073339 | 15 | 0 | 90.1 | 120.7 | 0.00 | 0.00 | 0.00 | 56 | 1006.1 |
| 20260507072338 | 15 | 0 | 90.1 | 120.7 | 0.00 | 0.00 | 0.00 | 58 | 1006.0 |
| 20260507071338 | 15 | 0 | 90.1 | 120.7 | 0.00 | 0.00 | 0.00 | 60 | 1005.9 |
| 20260507070338 | 15 | 0 | 90.1 | 120.7 | 0.00 | 0.00 | 0.00 | 60 | 1005.8 |
| 20260507065338 | 15 | 0 | 90.1 | 120.7 | 0.00 | 0.00 | 0.00 | 60 | 1005.6 |
| 20260507064338 | 15 | 0 | 90.1 | 120.7 | 0.00 | 0.00 | 0.00 | 60 | 1005.6 |
| 20260507063338 | 15 | 0 | 90.1 | 120.7 | 0.00 | 0.00 | 0.00 | 60 | 1005.5 |
| 20260507062338 | 15 | 0 | 90.1 | 120.7 | 0.00 | 0.00 | 0.00 | 61 | 1005.4 |
| 20260507061338 | 15 | 0 | 90.1 | 120.7 | 0.00 | 0.00 | 0.00 | 59 | 1005.3 |
| 20260507060338 | 15 | 0 | 90.1 | 120.7 | 0.00 | 0.00 | 0.00 | 58 | 1005.2 |
| 20260507055338 | 15 | 180 | 90.1 | 120.7 | 0.00 | 0.00 | 0.00 | 56 | 1005.1 |
| 20260507054338 | 15 | 0 | 90.1 | 120.7 | 0.00 | 0.00 | 0.00 | 51 | 1005.1 |